STARLINK-3875 (52483 NORAD) Tracking and Keplerian Element Data

This shows tracking and keplerian element data for the satellite.

Feedback or suggestion? Click here.




ElementValue
Catalog52483
NameSTARLINK-3875
Epoch Orbit130
Epoch Day167.08334491
Epoch Year2022
RAAN64.9852
Inclination53.2165
Eccentricity0.0001429
Argument of Perigee32.0473
Mean Anonmoly113.5416
Mean Motion15.73317862
Decay Rate0.00019149
L11 52483U 22049AJ 22167.08334491 .00019149 00000+0 13984-3 0 9990
L22 52483 53.2165 64.9852 0001429 32.0473 113.5416 15.73317862 1303

Live tracking and technical data element details for STARLINK-3875 (NORAD 52483). STARLINK-3875 can be tracked NOW for your location showing map with azimuth and elevation plus other details from your city location.

Track the satellite on the map from your city or location and see movement details for azimuth, elevation, latitude, longitude, range, height, and movement on the map or in text.







IsCatalogInMostPopularTable: catalog: 52483, numindb: 1
Update: records affected: 1



GetName: 52483 STARLINK-3875

Hit Count: updated at: Sat, 25 Jun 2022 04:40:52 GMT